Weather History for Lacon, IL

Change the Weather History Date:

Monday, March 17, 2014

  Actual Average (KPIA) Record (KPIA)
Temperature  
Mean Temperature 28 °F 41 °F  
Max Temperature 41 °F 51 °F 80 °F (1894)
Min Temperature 16 °F 31 °F 5 °F (1906)
Degree Days  
Heating Degree Days 37 24  
Month to date heating degree days 462  
Since 1 July heating degree days 4978  
Cooling Degree Days 0 0  
Month to date cooling degree days 0  
Year to date cooling degree days 0  
Moisture  
Dew Point 18 °F    
Average Humidity 69    
Maximum Humidity 88    
Minimum Humidity 45    
Precipitation  
Precipitation 0.00 in 0.09 in 1.62 in (1998)
Month to date precipitation 1.44  
Year to date precipitation 5.01  
Snow  
Snow 0.00 in 0.10 in 4.40 in (1934)
Month to date snowfall 1.9  
Since 1 July snowfall 23.2  
Snow Depth -    
Sea Level Pressure  
Sea Level Pressure 29.91 in    
Wind  
Wind Speed 4 mph (SE)    
Max Wind Speed 12 mph    
Max Gust Speed -    
Visibility 10 miles    
Events      
T = Trace of Precipitation, MM = Missing Value Source: NWS Daily Summary

Daily Weather History Graph

Daily Weather History Graph

Search for Another Location

Airport:

Trip Planner

Search our weather history database for the weather conditions in past years. The results will help you decide how hot, cold, wet, or windy it might be!

Date:

Astronomy

Mar. 17, 2014 Rise Set
Actual Time 7:05 AM CDT 7:06 PM CDT
Civil Twilight 6:38 AM CDT 7:33 PM CDT
Nautical Twilight 6:06 AM CDT 8:05 PM CDT
Astronomical Twilight 5:34 AM CDT 8:38 PM CDT
Moon 8:24 PM CDT (3/17) 7:20 AM CDT (3/17)
Length of Visible Light 12h 55m
Length of Day
12h 00m
Full, 99% of the Moon is Illuminated
Mar 17
Full
Mar 23
Last Quarter
Mar 30
New
Apr 7
First Quarter
Apr 15
Full

Hourly Weather History & Observations

Time (CDT) Temp. Windchill Dew Point Humidity Pressure Visibility Wind Dir Wind Speed Gust Speed Precip Events Conditions
12:15 AM 19.4 °F 14.3 °F 12.6 °F 75% 30.14 in 10.0 mi NE 3.5 mph - N/A   Clear
12:35 AM 19.2 °F 14.1 °F 12.7 °F 76% 30.12 in 10.0 mi NNE 3.5 mph - N/A   Clear
12:55 AM 19.4 °F 12.8 °F 12.7 °F 75% 30.12 in 10.0 mi NNE 4.6 mph - N/A   Clear
1:15 AM 19.2 °F 14.1 °F 13.1 °F 77% 30.11 in 10.0 mi NNE 3.5 mph - N/A   Clear
1:35 AM 18.7 °F 11.9 °F 13.1 °F 79% 30.09 in 10.0 mi NE 4.6 mph - N/A   Clear
1:55 AM 19.0 °F - 13.3 °F 78% 30.08 in 10.0 mi Calm Calm - N/A   Clear
2:15 AM 19.0 °F 13.9 °F 13.6 °F 79% 30.08 in 10.0 mi NNE 3.5 mph - N/A   Clear
2:35 AM 18.9 °F 13.7 °F 14.0 °F 81% 30.08 in 10.0 mi NNE 3.5 mph - N/A   Clear
2:55 AM 18.5 °F - 13.5 °F 81% 30.07 in 10.0 mi Calm Calm - N/A   Clear
3:15 AM 18.1 °F - 13.1 °F 81% 30.05 in 10.0 mi Calm Calm - N/A   Clear
3:35 AM 18.1 °F - 13.5 °F 82% 30.04 in 10.0 mi Calm Calm - N/A   Clear
3:55 AM 18.0 °F - 13.5 °F 83% 30.03 in 10.0 mi Calm Calm - N/A   Clear
4:15 AM 17.2 °F - 13.5 °F 85% 30.02 in 10.0 mi Calm Calm - N/A   Clear
4:35 AM 17.6 °F - 14.0 °F 86% 30.01 in 10.0 mi Calm Calm - N/A   Clear
4:55 AM 18.0 °F - 14.0 °F 84% 30.01 in 10.0 mi Calm Calm - N/A   Clear
5:15 AM 17.6 °F - 13.8 °F 85% 30.01 in 10.0 mi Calm Calm - N/A   Clear
5:35 AM 17.6 °F - 13.8 °F 85% 30.01 in 10.0 mi Calm Calm - N/A   Clear
5:55 AM 17.6 °F - 13.8 °F 85% 30.00 in 10.0 mi Calm Calm - N/A   Clear
6:15 AM 17.2 °F - 14.0 °F 87% 30.00 in 10.0 mi Calm Calm - N/A   Clear
6:35 AM 17.6 °F - 14.0 °F 86% 30.00 in 10.0 mi Calm Calm - N/A   Clear
6:55 AM 17.6 °F - 14.5 °F 88% 30.00 in 10.0 mi Calm Calm - N/A   Clear
7:15 AM 17.6 °F - 14.5 °F 88% 30.01 in 10.0 mi Calm Calm - N/A   Clear
7:35 AM 16.9 °F - 13.8 °F 88% 29.99 in 10.0 mi Calm Calm - N/A   Clear
7:55 AM 18.9 °F - 15.4 °F 87% 29.99 in 10.0 mi Calm Calm - N/A   Clear
8:15 AM 21.2 °F 12.6 °F 13.6 °F 73% 29.99 in 10.0 mi ESE 6.9 mph - N/A   Clear
8:35 AM 22.1 °F 13.7 °F 11.8 °F 65% 29.98 in 10.0 mi East 6.9 mph - N/A   Clear
8:55 AM 22.8 °F 13.6 °F 12.6 °F 65% 29.96 in 10.0 mi ESE 8.1 mph - N/A   Clear
9:15 AM 23.2 °F 17.2 °F 12.7 °F 64% 29.96 in 10.0 mi ESE 4.6 mph - N/A   Clear
9:35 AM 24.1 °F 17.0 °F 12.7 °F 62% 29.97 in 10.0 mi SSE 5.8 mph - N/A   Clear
9:55 AM 25.0 °F 16.3 °F 14.4 °F 64% 29.96 in 10.0 mi SSE 8.1 mph - N/A   Clear
10:15 AM 25.7 °F 18.0 °F 14.2 °F 62% 29.96 in 10.0 mi SSE 6.9 mph - N/A   Clear
10:35 AM 26.6 °F 21.2 °F 14.9 °F 61% 29.96 in 10.0 mi SE 4.6 mph - N/A   Scattered Clouds
10:55 AM 27.1 °F 20.7 °F 15.1 °F 60% 29.96 in 10.0 mi SE 5.8 mph - N/A   Clear
11:15 AM 27.9 °F 24.0 °F 15.1 °F 59% 29.96 in 10.0 mi SSW 3.5 mph - N/A   Clear
11:35 AM 28.9 °F 25.2 °F 17.2 °F 62% 29.95 in 10.0 mi ESE 3.5 mph - N/A   Clear
11:55 AM 30.2 °F 25.4 °F 17.4 °F 59% 29.94 in 10.0 mi ESE 4.6 mph - N/A   Clear
12:15 PM 30.6 °F 24.7 °F 18.1 °F 60% 29.93 in 10.0 mi SSE 5.8 mph - N/A   Clear
12:35 PM 31.5 °F 24.9 °F 17.8 °F 57% 29.91 in 10.0 mi SE 6.9 mph - N/A   Clear
12:55 PM 32.5 °F 26.2 °F 19.2 °F 58% 29.89 in 10.0 mi SE 6.9 mph - N/A   Clear
1:15 PM 33.1 °F 26.1 °F 19.2 °F 57% 29.88 in 10.0 mi SSE 8.1 mph - N/A   Clear
1:35 PM 33.4 °F 27.3 °F 20.5 °F 59% 29.86 in 10.0 mi SSE 6.9 mph - N/A   Clear
1:55 PM 34.9 °F 28.3 °F 21.4 °F 58% 29.85 in 10.0 mi SE 8.1 mph - N/A   Clear
2:15 PM 35.8 °F 28.3 °F 21.7 °F 57% 29.84 in 10.0 mi SSE 10.4 mph - N/A   Clear
2:35 PM 36.3 °F 30.1 °F 20.8 °F 53% 29.83 in 10.0 mi SSE 8.1 mph - N/A   Clear
2:55 PM 37.8 °F 31.8 °F 22.8 °F 55% 29.82 in 10.0 mi South 8.1 mph - N/A   Clear
3:15 PM 37.8 °F 32.5 °F 20.8 °F 51% 29.81 in 10.0 mi SSE 6.9 mph - N/A   Clear
3:35 PM 38.5 °F 31.6 °F 20.7 °F 49% 29.81 in 10.0 mi SSE 10.4 mph - N/A   Clear
3:55 PM 39.4 °F 33.2 °F 22.1 °F 50% 29.81 in 10.0 mi SE 9.2 mph - N/A   Clear
4:15 PM 40.3 °F 35.5 °F 22.6 °F 49% 29.80 in 10.0 mi SE 6.9 mph - N/A   Clear
4:35 PM 40.3 °F 34.9 °F 23.0 °F 50% 29.78 in 10.0 mi SSE 8.1 mph - N/A   Clear
4:55 PM 40.8 °F 34.5 °F 20.7 °F 45% 29.77 in 10.0 mi SSE 10.4 mph - N/A   Clear
5:15 PM 40.3 °F 33.9 °F 21.7 °F 48% 29.77 in 10.0 mi SSE 10.4 mph - N/A   Clear
5:35 PM 39.7 °F 34.3 °F 22.3 °F 50% 29.78 in 10.0 mi South 8.1 mph - N/A   Clear
5:55 PM 39.4 °F 32.3 °F 22.5 °F 51% 29.78 in 10.0 mi SSE 11.5 mph - N/A   Clear
6:15 PM 37.9 °F 32.1 °F 21.9 °F 53% 29.78 in 10.0 mi SSE 8.1 mph - N/A   Clear
6:35 PM 36.5 °F 31.0 °F 22.5 °F 57% 29.78 in 10.0 mi SSE 6.9 mph - N/A   Clear
6:55 PM 35.1 °F 28.6 °F 23.2 °F 62% 29.78 in 10.0 mi South 8.1 mph - N/A   Clear
7:15 PM 34.9 °F 27.7 °F 23.5 °F 63% 29.78 in 10.0 mi SSE 9.2 mph - N/A   Clear
7:35 PM 34.9 °F 28.3 °F 23.9 °F 64% 29.78 in 10.0 mi SSE 8.1 mph - N/A   Clear
7:55 PM 34.2 °F 27.5 °F 24.4 °F 68% 29.78 in 10.0 mi SSE 8.1 mph - N/A   Clear
8:15 PM 33.6 °F 28.4 °F 23.9 °F 68% 29.78 in 10.0 mi SSE 5.8 mph - N/A   Clear
8:35 PM 32.9 °F 27.5 °F 24.8 °F 72% 29.78 in 10.0 mi SE 5.8 mph - N/A   Clear
8:50 PM 32.0 °F 26.4 °F 25.7 °F 78% 29.78 in 10.0 mi SE 5.8 mph - N/A   Clear
9:15 PM 32.0 °F 26.4 °F 25.5 °F 77% 29.79 in 10.0 mi SSE 5.8 mph - N/A   Clear
9:35 PM 32.4 °F 25.3 °F 25.7 °F 76% 29.79 in 10.0 mi SSE 8.1 mph - N/A   Clear
9:55 PM 32.2 °F 25.0 °F 26.1 °F 78% 29.79 in 10.0 mi SSE 8.1 mph - N/A   Clear
10:15 PM 32.2 °F 25.8 °F 26.2 °F 79% 29.79 in 10.0 mi SSE 6.9 mph - N/A   Clear
10:35 PM 32.2 °F 25.0 °F 26.1 °F 78% 29.80 in 10.0 mi SSE 8.1 mph - N/A   Clear
10:55 PM 31.6 °F 28.3 °F 25.3 °F 78% 29.81 in 10.0 mi SSW 3.5 mph - N/A   Clear
11:15 PM 31.8 °F 28.5 °F 25.5 °F 78% 29.81 in 10.0 mi South 3.5 mph - N/A   Clear
11:35 PM 30.2 °F 26.7 °F 25.3 °F 82% 29.80 in 10.0 mi SSE 3.5 mph - N/A   Clear
11:55 PM 30.2 °F - 25.3 °F 82% 29.80 in 10.0 mi Calm Calm - N/A   Clear